Wetterdaten: Donnerstag, 05.06.2014
Datum Zeit Temperatur Luftfeuchte Luftdruck Regen Wind Richtung Richtung Sonnenschein ET UV Solar Taupunkt Windchill Windben
05.06.2014 00:00 13,4 C 93 % 1006,4 hPa 0,0 l/m 1,5 km/h (1 Bft) O-SO 106 0 min 0,000 mm 0,0 UV-I 0 W/m 12,3 C 13,4 C 4,8 km/h (1 Bft)
05.06.2014 00:05 13,5 C 93 % 1006,5 hPa 0,0 l/m 0,3 km/h (0 Bft) O 100 0 min 0,000 mm 0,0 UV-I 0 W/m 12,4 C 13,5 C 3,2 km/h (1 Bft)
05.06.2014 00:10 13,5 C 93 % 1006,6 hPa 0,0 l/m 0,6 km/h (0 Bft) O-SO 103 0 min 0,000 mm 0,0 UV-I 0 W/m 12,4 C 13,5 C 4,8 km/h (1 Bft)
05.06.2014 00:15 13,5 C 93 % 1006,6 hPa 0,0 l/m 1,4 km/h (1 Bft) O 100 0 min 0,000 mm 0,0 UV-I 0 W/m 12,4 C 13,5 C 8,0 km/h (2 Bft)
05.06.2014 00:20 13,5 C 93 % 1006,5 hPa 0,0 l/m 2,1 km/h (1 Bft) O 99 0 min 0,000 mm 0,0 UV-I 0 W/m 12,4 C 13,5 C 4,8 km/h (1 Bft)
05.06.2014 00:25 13,5 C 93 % 1006,5 hPa 0,0 l/m 4,1 km/h (1 Bft) S-SO 159 0 min 0,000 mm 0,0 UV-I 0 W/m 12,4 C 13,5 C 11,3 km/h (2 Bft)
05.06.2014 00:30 13,6 C 93 % 1006,5 hPa 0,0 l/m 2,6 km/h (1 Bft) S 171 0 min 0,000 mm 0,0 UV-I 0 W/m 12,5 C 13,6 C 6,4 km/h (2 Bft)
05.06.2014 00:35 13,6 C 93 % 1006,5 hPa 0,0 l/m 0,8 km/h (0 Bft) S-SW 213 0 min 0,000 mm 0,0 UV-I 0 W/m 12,5 C 13,6 C 4,8 km/h (1 Bft)
05.06.2014 00:40 13,6 C 92 % 1006,6 hPa 0,0 l/m 1,1 km/h (1 Bft) S-SW 209 0 min 0,000 mm 0,0 UV-I 0 W/m 12,3 C 13,6 C 6,4 km/h (2 Bft)
05.06.2014 00:45 13,7 C 92 % 1006,5 hPa 0,0 l/m 4,5 km/h (1 Bft) S-SW 194 0 min 0,000 mm 0,0 UV-I 0 W/m 12,4 C 13,7 C 14,5 km/h (3 Bft)
05.06.2014 00:50 13,7 C 92 % 1006,6 hPa 0,0 l/m 3,1 km/h (1 Bft) S 184 0 min 0,000 mm 0,0 UV-I 0 W/m 12,4 C 13,7 C 11,3 km/h (2 Bft)
05.06.2014 00:55 13,8 C 91 % 1006,6 hPa 0,0 l/m 4,9 km/h (1 Bft) W 271 0 min 0,000 mm 0,0 UV-I 0 W/m 12,4 C 13,8 C 11,3 km/h (2 Bft)
05.06.2014 01:00 13,8 C 91 % 1006,6 hPa 0,0 l/m 2,7 km/h (1 Bft) W-SW 250 0 min 0,000 mm 0,0 UV-I 0 W/m 12,4 C 13,8 C 9,7 km/h (2 Bft)
05.06.2014 01:05 13,7 C 91 % 1006,6 hPa 0,0 l/m 2,2 km/h (1 Bft) W-NW 286 0 min 0,000 mm 0,0 UV-I 0 W/m 12,3 C 13,7 C 8,0 km/h (2 Bft)
05.06.2014 01:10 13,6 C 91 % 1006,9 hPa 0,0 l/m 3,6 km/h (1 Bft) W-SW 238 0 min 0,000 mm 0,0 UV-I 0 W/m 12,2 C 13,6 C 16,1 km/h (3 Bft)
05.06.2014 01:15 13,5 C 90 % 1006,8 hPa 0,0 l/m 7,3 km/h (2 Bft) W-SW 242 0 min 0,000 mm 0,0 UV-I 0 W/m 11,9 C 12,9 C 16,1 km/h (3 Bft)
05.06.2014 01:20 13,5 C 90 % 1007,0 hPa 0,0 l/m 5,1 km/h (1 Bft) W-SW 249 0 min 0,000 mm 0,0 UV-I 0 W/m 11,9 C 13,5 C 12,9 km/h (3 Bft)
05.06.2014 01:25 13,4 C 90 % 1006,9 hPa 0,0 l/m 3,9 km/h (1 Bft) W 272 0 min 0,000 mm 0,0 UV-I 0 W/m 11,8 C 13,4 C 9,7 km/h (2 Bft)
05.06.2014 01:30 13,4 C 90 % 1007,0 hPa 0,0 l/m 2,8 km/h (1 Bft) W 274 0 min 0,000 mm 0,0 UV-I 0 W/m 11,8 C 13,4 C 9,7 km/h (2 Bft)
05.06.2014 01:35 13,3 C 90 % 1007,1 hPa 0,0 l/m 3,3 km/h (1 Bft) W-SW 252 0 min 0,000 mm 0,0 UV-I 0 W/m 11,7 C 13,3 C 8,0 km/h (2 Bft)
05.06.2014 01:40 13,3 C 90 % 1007,1 hPa 0,0 l/m 6,1 km/h (2 Bft) SW 229 0 min 0,000 mm 0,0 UV-I 0 W/m 11,7 C 13,3 C 11,3 km/h (2 Bft)
05.06.2014 01:45 13,3 C 89 % 1007,3 hPa 0,0 l/m 8,3 km/h (2 Bft) W 280 0 min 0,000 mm 0,0 UV-I 0 W/m 11,5 C 12,1 C 17,7 km/h (3 Bft)
05.06.2014 01:50 13,2 C 89 % 1007,4 hPa 0,0 l/m 6,9 km/h (2 Bft) W-SW 254 0 min 0,000 mm 0,0 UV-I 0 W/m 11,4 C 12,9 C 14,5 km/h (3 Bft)
05.06.2014 01:55 13,1 C 88 % 1007,5 hPa 0,0 l/m 7,4 km/h (2 Bft) W-NW 298 0 min 0,000 mm 0,0 UV-I 0 W/m 11,2 C 12,5 C 16,1 km/h (3 Bft)
05.06.2014 02:00 12,9 C 89 % 1007,9 hPa 0,0 l/m 10,5 km/h (2 Bft) N-NW 347 0 min 0,000 mm 0,0 UV-I 0 W/m 11,1 C 10,5 C 25,7 km/h (4 Bft)
05.06.2014 02:05 12,4 C 88 % 1008,0 hPa 0,2 l/m 16,8 km/h (3 Bft) W 271 0 min 0,000 mm 0,0 UV-I 0 W/m 10,5 C 7,4 C 32,2 km/h (5 Bft)
05.06.2014 02:10 12,1 C 88 % 1008,3 hPa 0,0 l/m 12,9 km/h (3 Bft) W 262 0 min 0,000 mm 0,0 UV-I 0 W/m 10,2 C 8,5 C 30,6 km/h (5 Bft)
05.06.2014 02:15 11,7 C 89 % 1008,4 hPa 0,0 l/m 13,6 km/h (3 Bft) W-NW 288 0 min 0,000 mm 0,0 UV-I 0 W/m 9,9 C 7,8 C 27,4 km/h (4 Bft)
05.06.2014 02:20 11,4 C 89 % 1008,5 hPa 0,0 l/m 15,6 km/h (3 Bft) W-NW 294 0 min 0,000 mm 0,0 UV-I 0 W/m 9,7 C 6,6 C 25,7 km/h (4 Bft)
05.06.2014 02:25 11,2 C 89 % 1008,7 hPa 0,0 l/m 12,6 km/h (3 Bft) W-SW 252 0 min 0,000 mm 0,0 UV-I 0 W/m 9,5 C 7,6 C 25,7 km/h (4 Bft)
05.06.2014 02:30 11,0 C 89 % 1008,9 hPa 0,0 l/m 11,0 km/h (2 Bft) W-NW 302 0 min 0,000 mm 0,0 UV-I 0 W/m 9,3 C 8,2 C 25,7 km/h (4 Bft)
05.06.2014 02:35 10,9 C 89 % 1008,9 hPa 0,0 l/m 9,2 km/h (2 Bft) W-SW 254 0 min 0,000 mm 0,0 UV-I 0 W/m 9,2 C 9,0 C 17,7 km/h (3 Bft)
05.06.2014 02:40 10,8 C 90 % 1009,1 hPa 0,0 l/m 9,1 km/h (2 Bft) W-SW 257 0 min 0,000 mm 0,0 UV-I 0 W/m 9,2 C 9,0 C 19,3 km/h (3 Bft)
05.06.2014 02:45 10,6 C 90 % 1009,1 hPa 0,0 l/m 13,6 km/h (3 Bft) W-NW 288 0 min 0,000 mm 0,0 UV-I 0 W/m 9,0 C 6,5 C 27,4 km/h (4 Bft)
05.06.2014 02:50 10,5 C 90 % 1009,2 hPa 0,0 l/m 11,3 km/h (2 Bft) W 261 0 min 0,000 mm 0,0 UV-I 0 W/m 8,9 C 7,4 C 20,9 km/h (4 Bft)
05.06.2014 02:55 10,4 C 90 % 1009,2 hPa 0,0 l/m 8,1 km/h (2 Bft) W 281 0 min 0,000 mm 0,0 UV-I 0 W/m 8,8 C 9,2 C 16,1 km/h (3 Bft)
05.06.2014 03:00 10,4 C 90 % 1009,4 hPa 0,0 l/m 8,2 km/h (2 Bft) W-SW 256 0 min 0,000 mm 0,0 UV-I 0 W/m 8,8 C 9,1 C 17,7 km/h (3 Bft)
05.06.2014 03:05 10,3 C 90 % 1009,4 hPa 0,0 l/m 6,4 km/h (2 Bft) W 273 0 min 0,025 mm 0,0 UV-I 0 W/m 8,7 C 10,3 C 12,9 km/h (3 Bft)
05.06.2014 03:10 10,3 C 90 % 1009,4 hPa 0,0 l/m 6,0 km/h (2 Bft) NW 309 0 min 0,000 mm 0,0 UV-I 0 W/m 8,7 C 10,3 C 12,9 km/h (3 Bft)
05.06.2014 03:15 10,3 C 90 % 1009,6 hPa 0,0 l/m 6,2 km/h (2 Bft) W 278 0 min 0,000 mm 0,0 UV-I 0 W/m 8,7 C 10,3 C 12,9 km/h (3 Bft)
05.06.2014 03:20 10,2 C 90 % 1009,7 hPa 0,0 l/m 6,6 km/h (2 Bft) NW 305 0 min 0,000 mm 0,0 UV-I 0 W/m 8,6 C 10,1 C 16,1 km/h (3 Bft)
05.06.2014 03:25 10,2 C 90 % 1009,7 hPa 0,0 l/m 7,3 km/h (2 Bft) W 263 0 min 0,000 mm 0,0 UV-I 0 W/m 8,6 C 9,6 C 14,5 km/h (3 Bft)
05.06.2014 03:30 10,2 C 90 % 1009,9 hPa 0,0 l/m 6,0 km/h (2 Bft) W 280 0 min 0,000 mm 0,0 UV-I 0 W/m 8,6 C 10,2 C 11,3 km/h (2 Bft)
05.06.2014 03:35 10,2 C 90 % 1009,9 hPa 0,0 l/m 7,4 km/h (2 Bft) SW 236 0 min 0,000 mm 0,0 UV-I 0 W/m 8,6 C 9,5 C 14,5 km/h (3 Bft)
05.06.2014 03:40 10,2 C 89 % 1010,1 hPa 0,0 l/m 9,6 km/h (2 Bft) W-NW 296 0 min 0,000 mm 0,0 UV-I 0 W/m 8,5 C 8,0 C 17,7 km/h (3 Bft)
05.06.2014 03:45 10,2 C 89 % 1010,1 hPa 0,0 l/m 8,4 km/h (2 Bft) W 275 0 min 0,000 mm 0,0 UV-I 0 W/m 8,5 C 8,8 C 16,1 km/h (3 Bft)
05.06.2014 03:50 10,2 C 89 % 1010,2 hPa 0,0 l/m 8,8 km/h (2 Bft) W 277 0 min 0,000 mm 0,0 UV-I 0 W/m 8,5 C 8,5 C 19,3 km/h (3 Bft)
05.06.2014 03:55 10,2 C 89 % 1010,2 hPa 0,0 l/m 7,5 km/h (2 Bft) W 267 0 min 0,000 mm 0,0 UV-I 0 W/m 8,5 C 9,4 C 14,5 km/h (3 Bft)
05.06.2014 04:00 10,2 C 88 % 1010,2 hPa 0,0 l/m 10,0 km/h (2 Bft) W-NW 287 0 min 0,000 mm 0,0 UV-I 0 W/m 8,3 C 7,8 C 20,9 km/h (4 Bft)
05.06.2014 04:05 10,2 C 88 % 1010,2 hPa 0,0 l/m 8,7 km/h (2 Bft) W-SW 257 0 min 0,000 mm 0,0 UV-I 0 W/m 8,3 C 8,6 C 16,1 km/h (3 Bft)
05.06.2014 04:10 10,2 C 88 % 1010,2 hPa 0,0 l/m 8,0 km/h (2 Bft) W-NW 290 0 min 0,000 mm 0,0 UV-I 0 W/m 8,3 C 9,1 C 12,9 km/h (3 Bft)
05.06.2014 04:15 10,2 C 88 % 1010,2 hPa 0,0 l/m 8,3 km/h (2 Bft) W 265 0 min 0,000 mm 0,0 UV-I 0 W/m 8,3 C 8,9 C 14,5 km/h (3 Bft)
05.06.2014 04:20 10,1 C 88 % 1010,2 hPa 0,0 l/m 8,2 km/h (2 Bft) SW 234 0 min 0,000 mm 0,0 UV-I 0 W/m 8,2 C 8,8 C 16,1 km/h (3 Bft)
05.06.2014 04:25 10,1 C 88 % 1010,2 hPa 0,0 l/m 7,8 km/h (2 Bft) W 274 0 min 0,000 mm 0,0 UV-I 0 W/m 8,2 C 9,1 C 16,1 km/h (3 Bft)
05.06.2014 04:30 10,0 C 88 % 1010,2 hPa 0,0 l/m 8,9 km/h (2 Bft) W 281 0 min 0,000 mm 0,0 UV-I 0 W/m 8,1 C 8,3 C 17,7 km/h (3 Bft)
05.06.2014 04:35 9,9 C 88 % 1010,2 hPa 0,0 l/m 9,3 km/h (2 Bft) W 279 0 min 0,000 mm 0,0 UV-I 0 W/m 8,0 C 7,9 C 16,1 km/h (3 Bft)
05.06.2014 04:40 9,8 C 87 % 1010,4 hPa 0,0 l/m 11,2 km/h (2 Bft) W-NW 286 0 min 0,000 mm 0,0 UV-I 0 W/m 7,7 C 6,7 C 20,9 km/h (4 Bft)
05.06.2014 04:45 9,7 C 86 % 1010,4 hPa 0,0 l/m 10,4 km/h (2 Bft) W-NW 302 0 min 0,000 mm 0,0 UV-I 0 W/m 7,5 C 7,0 C 17,7 km/h (3 Bft)
05.06.2014 04:50 9,6 C 86 % 1010,5 hPa 0,0 l/m 10,3 km/h (2 Bft) W-NW 292 0 min 0,000 mm 0,0 UV-I 0 W/m 7,4 C 7,0 C 16,1 km/h (3 Bft)
05.06.2014 04:55 9,4 C 86 % 1010,6 hPa 0,0 l/m 7,8 km/h (2 Bft) W-NW 291 0 min 0,000 mm 0,0 UV-I 0 W/m 7,2 C 8,4 C 14,5 km/h (3 Bft)
05.06.2014 05:00 9,3 C 86 % 1010,7 hPa 0,0 l/m 7,4 km/h (2 Bft) SW 234 0 min 0,026 mm 0,0 UV-I 0 W/m 7,1 C 8,6 C 16,1 km/h (3 Bft)
05.06.2014 05:05 9,1 C 85 % 1010,7 hPa 0,0 l/m 7,8 km/h (2 Bft) W-NW 302 0 min 0,000 mm 0,0 UV-I 0 W/m 6,7 C 8,1 C 14,5 km/h (3 Bft)
05.06.2014 05:10 9,0 C 85 % 1010,8 hPa 0,0 l/m 8,1 km/h (2 Bft) W-NW 286 0 min 0,000 mm 0,0 UV-I 0 W/m 6,6 C 7,7 C 16,1 km/h (3 Bft)
05.06.2014 05:15 8,8 C 84 % 1010,9 hPa 0,0 l/m 8,0 km/h (2 Bft) W 259 0 min 0,000 mm 0,0 UV-I 0 W/m 6,2 C 7,6 C 14,5 km/h (3 Bft)
05.06.2014 05:20 8,7 C 84 % 1011,0 hPa 0,0 l/m 7,4 km/h (2 Bft) W 279 0 min 0,000 mm 0,0 UV-I 0 W/m 6,2 C 7,9 C 12,9 km/h (3 Bft)
05.06.2014 05:25 8,6 C 84 % 1011,0 hPa 0,0 l/m 6,7 km/h (2 Bft) W 277 0 min 0,000 mm 0,0 UV-I 0 W/m 6,1 C 8,4 C 14,5 km/h (3 Bft)
05.06.2014 05:30 8,5 C 84 % 1011,0 hPa 0,0 l/m 7,7 km/h (2 Bft) W 276 0 min 0,000 mm 0,0 UV-I 5 W/m 6,0 C 7,5 C 16,1 km/h (3 Bft)
05.06.2014 05:35 8,4 C 84 % 1011,1 hPa 0,0 l/m 5,7 km/h (1 Bft) W-NW 287 0 min 0,000 mm 0,0 UV-I 7 W/m 5,9 C 8,4 C 14,5 km/h (3 Bft)
05.06.2014 05:40 8,4 C 85 % 1011,2 hPa 0,0 l/m 3,6 km/h (1 Bft) W 275 0 min 0,000 mm 0,0 UV-I 9 W/m 6,0 C 8,4 C 9,7 km/h (2 Bft)
05.06.2014 05:45 8,3 C 85 % 1011,2 hPa 0,0 l/m 4,3 km/h (1 Bft) W 280 0 min 0,000 mm 0,0 UV-I 11 W/m 5,9 C 8,3 C 11,3 km/h (2 Bft)
05.06.2014 05:50 8,2 C 85 % 1011,2 hPa 0,0 l/m 3,8 km/h (1 Bft) W-NW 287 0 min 0,000 mm 0,0 UV-I 12 W/m 5,8 C 8,2 C 9,7 km/h (2 Bft)
05.06.2014 05:55 8,2 C 86 % 1011,3 hPa 0,0 l/m 1,6 km/h (1 Bft) W 277 0 min 0,000 mm 0,0 UV-I 14 W/m 6,0 C 8,2 C 6,4 km/h (2 Bft)
05.06.2014 06:00 8,1 C 86 % 1011,3 hPa 0,0 l/m 0,5 km/h (0 Bft) W 270 0 min 0,025 mm 0,0 UV-I 16 W/m 5,9 C 8,1 C 3,2 km/h (1 Bft)
05.06.2014 06:05 7,9 C 86 % 1011,3 hPa 0,0 l/m 0,2 km/h (0 Bft) W 270 0 min 0,000 mm 0,0 UV-I 19 W/m 5,7 C 7,9 C 3,2 km/h (1 Bft)
05.06.2014 06:10 7,9 C 87 % 1011,3 hPa 0,0 l/m 0,1 km/h (0 Bft) W 270 0 min 0,000 mm 0,0 UV-I 19 W/m 5,9 C 7,9 C 3,2 km/h (1 Bft)
05.06.2014 06:15 7,8 C 87 % 1011,4 hPa 0,0 l/m 0,7 km/h (0 Bft) W 269 0 min 0,000 mm 0,0 UV-I 21 W/m 5,8 C 7,8 C 4,8 km/h (1 Bft)
05.06.2014 06:20 7,7 C 88 % 1011,4 hPa 0,0 l/m 0,1 km/h (0 Bft) W 270 0 min 0,000 mm 0,0 UV-I 23 W/m 5,8 C 7,7 C 1,6 km/h (1 Bft)
05.06.2014 06:25 7,7 C 88 % 1011,4 hPa 0,0 l/m 0,0 km/h (0 Bft) W 270 0 min 0,000 mm 0,0 UV-I 28 W/m 5,8 C 7,7 C 1,6 km/h (1 Bft)
05.06.2014 06:30 7,7 C 88 % 1011,5 hPa 0,0 l/m 0,0 km/h (0 Bft) W 270 0 min 0,000 mm 0,0 UV-I 84 W/m 5,8 C 7,7 C 0,0 km/h (0 Bft)
05.06.2014 06:35 7,8 C 88 % 1011,6 hPa 0,0 l/m 0,0 km/h (0 Bft) W 270 5 min 0,000 mm 0,0 UV-I 93 W/m 5,9 C 7,8 C 0,0 km/h (0 Bft)
05.06.2014 06:40 7,9 C 88 % 1011,5 hPa 0,0 l/m 0,0 km/h (0 Bft) W 270 5 min 0,000 mm 0,0 UV-I 102 W/m 6,0 C 7,9 C 1,6 km/h (1 Bft)
05.06.2014 06:45 8,1 C 88 % 1011,7 hPa 0,0 l/m 0,0 km/h (0 Bft) W 270 5 min 0,000 mm 0,0 UV-I 120 W/m 6,2 C 8,1 C 1,6 km/h (1 Bft)
05.06.2014 06:50 8,2 C 88 % 1011,7 hPa 0,0 l/m 0,9 km/h (0 Bft) SW 219 5 min 0,000 mm 0,0 UV-I 134 W/m 6,3 C 8,2 C 4,8 km/h (1 Bft)
05.06.2014 06:55 8,4 C 87 % 1011,7 hPa 0,0 l/m 1,7 km/h (1 Bft) W-SW 243 5 min 0,000 mm 0,0 UV-I 148 W/m 6,4 C 8,4 C 8,0 km/h (2 Bft)
05.06.2014 07:00 8,5 C 87 % 1011,7 hPa 0,0 l/m 0,3 km/h (0 Bft) W-SW 243 5 min 0,026 mm 0,0 UV-I 158 W/m 6,5 C 8,5 C 1,6 km/h (1 Bft)
05.06.2014 07:05 8,7 C 86 % 1011,8 hPa 0,0 l/m 2,0 km/h (1 Bft) W-NW 285 5 min 0,000 mm 0,0 UV-I 169 W/m 6,5 C 8,7 C 6,4 km/h (2 Bft)
05.06.2014 07:10 8,8 C 86 % 1011,8 hPa 0,0 l/m 3,0 km/h (1 Bft) W-NW 286 5 min 0,000 mm 0,0 UV-I 181 W/m 6,6 C 8,8 C 8,0 km/h (2 Bft)
05.06.2014 07:15 8,9 C 86 % 1011,9 hPa 0,0 l/m 1,1 km/h (1 Bft) W-SW 241 5 min 0,000 mm 0,5 UV-I 193 W/m 6,7 C 8,9 C 6,4 km/h (2 Bft)
05.06.2014 07:20 9,1 C 85 % 1011,8 hPa 0,0 l/m 3,2 km/h (1 Bft) W 261 5 min 0,000 mm 0,5 UV-I 204 W/m 6,7 C 9,1 C 9,7 km/h (2 Bft)
05.06.2014 07:25 9,2 C 84 % 1011,8 hPa 0,0 l/m 4,2 km/h (1 Bft) W-SW 246 5 min 0,000 mm 0,5 UV-I 216 W/m 6,6 C 9,2 C 11,3 km/h (2 Bft)
05.06.2014 07:30 9,3 C 84 % 1011,9 hPa 0,0 l/m 1,1 km/h (1 Bft) W-SW 246 5 min 0,000 mm 0,6 UV-I 230 W/m 6,7 C 9,3 C 6,4 km/h (2 Bft)
05.06.2014 07:35 9,4 C 84 % 1012,0 hPa 0,0 l/m 2,6 km/h (1 Bft) S-SW 194 5 min 0,000 mm 0,6 UV-I 239 W/m 6,8 C 9,4 C 9,7 km/h (2 Bft)
05.06.2014 07:40 9,6 C 84 % 1012,0 hPa 0,0 l/m 1,3 km/h (1 Bft) S-SW 195 5 min 0,000 mm 0,7 UV-I 250 W/m 7,0 C 9,6 C 6,4 km/h (2 Bft)
05.06.2014 07:45 9,7 C 83 % 1012,1 hPa 0,0 l/m 3,9 km/h (1 Bft) W-SW 250 5 min 0,000 mm 0,7 UV-I 264 W/m 7,0 C 9,7 C 12,9 km/h (3 Bft)
05.06.2014 07:50 9,7 C 82 % 1012,1 hPa 0,0 l/m 5,6 km/h (1 Bft) W-NW 286 5 min 0,000 mm 0,8 UV-I 281 W/m 6,8 C 9,7 C 16,1 km/h (3 Bft)
05.06.2014 07:55 9,8 C 83 % 1012,2 hPa 0,0 l/m 2,4 km/h (1 Bft) W 273 5 min 0,000 mm 0,7 UV-I 336 W/m 7,1 C 9,8 C 9,7 km/h (2 Bft)
05.06.2014 08:00 9,9 C 83 % 1012,3 hPa 0,0 l/m 1,1 km/h (1 Bft) S 188 0 min 0,101 mm 0,7 UV-I 137 W/m 7,2 C 9,9 C 6,4 km/h (2 Bft)
05.06.2014 08:05 10,0 C 82 % 1012,3 hPa 0,0 l/m 2,0 km/h (1 Bft) W-SW 258 0 min 0,000 mm 0,0 UV-I 65 W/m 7,1 C 10,0 C 6,4 km/h (2 Bft)
05.06.2014 08:10 10,1 C 83 % 1012,2 hPa 0,0 l/m 0,1 km/h (0 Bft) W-SW 238 0 min 0,000 mm 1,0 UV-I 54 W/m 7,3 C 10,1 C 1,6 km/h (1 Bft)
05.06.2014 08:15 10,3 C 83 % 1012,2 hPa 0,0 l/m 1,6 km/h (1 Bft) W-SW 251 5 min 0,000 mm 1,0 UV-I 343 W/m 7,5 C 10,3 C 9,7 km/h (2 Bft)
05.06.2014 08:20 10,5 C 81 % 1012,2 hPa 0,0 l/m 5,3 km/h (1 Bft) S-SW 196 5 min 0,000 mm 1,1 UV-I 339 W/m 7,4 C 10,5 C 14,5 km/h (3 Bft)
05.06.2014 08:25 10,6 C 80 % 1012,4 hPa 0,0 l/m 7,6 km/h (2 Bft) SW 225 5 min 0,000 mm 0,9 UV-I 304 W/m 7,3 C 9,8 C 14,5 km/h (3 Bft)
05.06.2014 08:30 10,6 C 79 % 1012,4 hPa 0,0 l/m 10,6 km/h (2 Bft) SW 228 5 min 0,000 mm 1,2 UV-I 413 W/m 7,1 C 7,9 C 22,5 km/h (4 Bft)
05.06.2014 08:35 10,6 C 80 % 1012,4 hPa 0,0 l/m 9,7 km/h (2 Bft) S 171 5 min 0,000 mm 1,4 UV-I 454 W/m 7,3 C 8,4 C 19,3 km/h (3 Bft)
05.06.2014 08:40 10,8 C 80 % 1012,4 hPa 0,0 l/m 9,3 km/h (2 Bft) W-SW 257 5 min 0,000 mm 1,5 UV-I 483 W/m 7,5 C 8,9 C 24,1 km/h (4 Bft)
05.06.2014 08:45 11,1 C 77 % 1012,4 hPa 0,0 l/m 12,5 km/h (3 Bft) S-SW 207 5 min 0,000 mm 1,5 UV-I 441 W/m 7,2 C 7,5 C 25,7 km/h (4 Bft)
05.06.2014 08:50 11,1 C 78 % 1012,4 hPa 0,0 l/m 13,2 km/h (3 Bft) SW 236 5 min 0,000 mm 1,6 UV-I 443 W/m 7,4 C 7,2 C 27,4 km/h (4 Bft)
05.06.2014 08:55 11,3 C 78 % 1012,5 hPa 0,0 l/m 8,7 km/h (2 Bft) S 173 5 min 0,000 mm 1,7 UV-I 476 W/m 7,6 C 9,8 C 19,3 km/h (3 Bft)
05.06.2014 09:00 11,3 C 76 % 1012,5 hPa 0,0 l/m 10,2 km/h (2 Bft) S-SW 196 5 min 0,178 mm 1,5 UV-I 411 W/m 7,2 C 8,9 C 25,7 km/h (4 Bft)
05.06.2014 09:05 11,3 C 77 % 1012,6 hPa 0,0 l/m 10,2 km/h (2 Bft) S-SW 213 5 min 0,000 mm 1,8 UV-I 406 W/m 7,4 C 8,9 C 22,5 km/h (4 Bft)
05.06.2014 09:10 11,5 C 75 % 1012,6 hPa 0,0 l/m 12,6 km/h (3 Bft) W-SW 244 5 min 0,000 mm 1,9 UV-I 538 W/m 7,2 C 8,0 C 22,5 km/h (4 Bft)
05.06.2014 09:15 11,8 C 76 % 1012,7 hPa 0,0 l/m 10,3 km/h (2 Bft) W-SW 242 5 min 0,000 mm 2,0 UV-I 550 W/m 7,7 C 9,4 C 19,3 km/h (3 Bft)
05.06.2014 09:20 12,1 C 76 % 1012,7 hPa 0,0 l/m 8,8 km/h (2 Bft) W-SW 246 5 min 0,000 mm 1,5 UV-I 592 W/m 8,0 C 10,6 C 19,3 km/h (3 Bft)
05.06.2014 09:25 12,3 C 75 % 1012,7 hPa 0,0 l/m 8,2 km/h (2 Bft) SW 225 5 min 0,000 mm 2,2 UV-I 608 W/m 8,0 C 11,1 C 19,3 km/h (3 Bft)
05.06.2014 09:30 12,5 C 74 % 1012,8 hPa 0,0 l/m 8,9 km/h (2 Bft) SW 235 5 min 0,000 mm 2,3 UV-I 594 W/m 8,0 C 11,0 C 19,3 km/h (3 Bft)
05.06.2014 09:35 12,8 C 73 % 1012,9 hPa 0,0 l/m 7,8 km/h (2 Bft) SW 227 5 min 0,000 mm 2,1 UV-I 548 W/m 8,1 C 11,9 C 20,9 km/h (4 Bft)
05.06.2014 09:40 12,8 C 71 % 1012,8 hPa 0,0 l/m 5,6 km/h (1 Bft) S-SO 148 5 min 0,000 mm 2,4 UV-I 555 W/m 7,7 C 12,8 C 12,9 km/h (3 Bft)
05.06.2014 09:45 12,8 C 71 % 1013,0 hPa 0,0 l/m 6,4 km/h (2 Bft) W-SW 248 0 min 0,000 mm 1,7 UV-I 230 W/m 7,7 C 12,8 C 14,5 km/h (3 Bft)
05.06.2014 09:50 12,6 C 71 % 1012,9 hPa 0,0 l/m 9,0 km/h (2 Bft) W 267 0 min 0,000 mm 2,6 UV-I 269 W/m 7,5 C 11,0 C 19,3 km/h (3 Bft)
05.06.2014 09:55 12,9 C 69 % 1012,9 hPa 0,0 l/m 9,4 km/h (2 Bft) W-SW 255 5 min 0,000 mm 1,7 UV-I 373 W/m 7,4 C 11,1 C 17,7 km/h (3 Bft)
05.06.2014 10:00 12,8 C 70 % 1012,8 hPa 0,0 l/m 7,0 km/h (2 Bft) SW 215 0 min 0,000 mm 1,8 UV-I 216 W/m 7,5 C 12,4 C 17,7 km/h (3 Bft)
05.06.2014 10:05 13,1 C 69 % 1012,9 hPa 0,0 l/m 7,4 km/h (2 Bft) W-SW 254 0 min 0,254 mm 1,9 UV-I 258 W/m 7,5 C 12,5 C 16,1 km/h (3 Bft)
05.06.2014 10:10 13,2 C 67 % 1012,9 hPa 0,0 l/m 8,3 km/h (2 Bft) SW 228 5 min 0,000 mm 2,2 UV-I 454 W/m 7,2 C 12,0 C 19,3 km/h (3 Bft)
05.06.2014 10:15 13,3 C 65 % 1012,9 hPa 0,0 l/m 12,6 km/h (3 Bft) SW 233 5 min 0,000 mm 2,6 UV-I 563 W/m 6,9 C 10,1 C 29,0 km/h (5 Bft)
05.06.2014 10:20 13,7 C 65 % 1012,8 hPa 0,0 l/m 12,3 km/h (3 Bft) S-SW 198 5 min 0,000 mm 3,6 UV-I 865 W/m 7,2 C 10,6 C 24,1 km/h (4 Bft)
05.06.2014 10:25 13,6 C 64 % 1012,9 hPa 0,0 l/m 13,6 km/h (3 Bft) S-SW 213 0 min 0,000 mm 3,2 UV-I 218 W/m 6,9 C 10,0 C 25,7 km/h (4 Bft)
05.06.2014 10:30 13,6 C 65 % 1012,8 hPa 0,0 l/m 11,2 km/h (2 Bft) W-SW 258 5 min 0,000 mm 3,2 UV-I 640 W/m 7,1 C 11,0 C 24,1 km/h (4 Bft)
05.06.2014 10:35 13,7 C 63 % 1012,7 hPa 0,0 l/m 11,5 km/h (2 Bft) S-SW 204 5 min 0,000 mm 2,9 UV-I 568 W/m 6,8 C 11,0 C 25,7 km/h (4 Bft)
05.06.2014 10:40 13,9 C 60 % 1012,8 hPa 0,0 l/m 14,3 km/h (3 Bft) SW 216 5 min 0,000 mm 3,5 UV-I 628 W/m 6,3 C 10,1 C 29,0 km/h (5 Bft)
05.06.2014 10:45 14,0 C 60 % 1012,8 hPa 0,0 l/m 17,0 km/h (3 Bft) W-NW 286 5 min 0,000 mm 4,0 UV-I 821 W/m 6,4 C 9,3 C 33,8 km/h (5 Bft)
05.06.2014 10:50 14,2 C 60 % 1013,0 hPa 0,0 l/m 14,7 km/h (3 Bft) W-SW 238 5 min 0,000 mm 4,0 UV-I 710 W/m 6,5 C 10,3 C 27,4 km/h (4 Bft)
05.06.2014 10:55 14,2 C 59 % 1013,0 hPa 0,0 l/m 16,6 km/h (3 Bft) W 269 5 min 0,000 mm 2,7 UV-I 441 W/m 6,3 C 9,7 C 27,4 km/h (4 Bft)
05.06.2014 11:00 14,4 C 60 % 1012,9 hPa 0,0 l/m 12,9 km/h (3 Bft) W 276 5 min 0,000 mm 4,0 UV-I 937 W/m 6,7 C 11,2 C 29,0 km/h (5 Bft)
05.06.2014 11:05 14,6 C 57 % 1013,1 hPa 0,0 l/m 16,1 km/h (3 Bft) W 280 5 min 0,330 mm 3,4 UV-I 568 W/m 6,2 C 10,3 C 33,8 km/h (5 Bft)
05.06.2014 11:10 14,4 C 59 % 1013,1 hPa 0,2 l/m 12,9 km/h (3 Bft) W-SW 239 5 min 0,000 mm 3,1 UV-I 492 W/m 6,5 C 11,2 C 24,1 km/h (4 Bft)
05.06.2014 11:15 14,6 C 59 % 1013,0 hPa 0,0 l/m 12,4 km/h (3 Bft) W-SW 248 5 min 0,000 mm 3,8 UV-I 545 W/m 6,7 C 11,7 C 24,1 km/h (4 Bft)
05.06.2014 11:20 14,6 C 59 % 1013,0 hPa 0,0 l/m 13,8 km/h (3 Bft) W 281 5 min 0,000 mm 3,6 UV-I 536 W/m 6,7 C 11,1 C 29,0 km/h (5 Bft)
05.06.2014 11:25 14,7 C 57 % 1013,2 hPa 0,0 l/m 15,3 km/h (3 Bft) S-SW 207 0 min 0,000 mm 2,9 UV-I 404 W/m 6,3 C 10,7 C 29,0 km/h (5 Bft)
05.06.2014 11:30 14,8 C 57 % 1013,1 hPa 0,0 l/m 12,4 km/h (3 Bft) SW 234 0 min 0,000 mm 3,0 UV-I 378 W/m 6,4 C 11,9 C 22,5 km/h (4 Bft)
05.06.2014 11:35 14,8 C 57 % 1013,4 hPa 0,0 l/m 14,2 km/h (3 Bft) W-SW 258 0 min 0,000 mm 5,0 UV-I 422 W/m 6,4 C 11,2 C 24,1 km/h (4 Bft)
05.06.2014 11:40 14,6 C 58 % 1013,3 hPa 0,0 l/m 16,3 km/h (3 Bft) W 273 0 min 0,000 mm 3,5 UV-I 318 W/m 6,4 C 10,3 C 29,0 km/h (5 Bft)
05.06.2014 11:45 14,5 C 57 % 1013,4 hPa 0,0 l/m 16,9 km/h (3 Bft) W-SW 238 0 min 0,000 mm 4,3 UV-I 345 W/m 6,1 C 10,0 C 29,0 km/h (5 Bft)
05.06.2014 11:50 14,6 C 57 % 1013,5 hPa 0,0 l/m 14,2 km/h (3 Bft) SW 225 0 min 0,000 mm 5,3 UV-I 369 W/m 6,2 C 11,0 C 25,7 km/h (4 Bft)
05.06.2014 11:55 14,9 C 57 % 1013,3 hPa 0,0 l/m 11,8 km/h (2 Bft) W-SW 240 0 min 0,000 mm 2,1 UV-I 262 W/m 6,5 C 12,2 C 30,6 km/h (5 Bft)
05.06.2014 12:00 14,9 C 56 % 1013,4 hPa 0,0 l/m 10,8 km/h (2 Bft) S-SO 151 0 min 0,000 mm 4,1 UV-I 355 W/m 6,2 C 12,7 C 20,9 km/h (4 Bft)
05.06.2014 12:05 15,0 C 54 % 1013,3 hPa 0,0 l/m 9,9 km/h (2 Bft) W-SW 238 0 min 0,305 mm 2,2 UV-I 283 W/m 5,8 C 13,2 C 19,3 km/h (3 Bft)
05.06.2014 12:10 14,8 C 56 % 1013,4 hPa 0,0 l/m 12,2 km/h (2 Bft) W-NW 293 0 min 0,000 mm 2,1 UV-I 267 W/m 6,1 C 12,0 C 20,9 km/h (4 Bft)
05.06.2014 12:15 14,7 C 57 % 1013,4 hPa 0,0 l/m 13,3 km/h (3 Bft) W-NW 296 0 min 0,000 mm 3,4 UV-I 422 W/m 6,3 C 11,4 C 27,4 km/h (4 Bft)
05.06.2014 12:20 14,9 C 59 % 1013,5 hPa 0,0 l/m 11,0 km/h (2 Bft) W-SW 246 5 min 0,000 mm 3,0 UV-I 478 W/m 7,0 C 12,6 C 22,5 km/h (4 Bft)
05.06.2014 12:25 15,3 C 58 % 1013,3 hPa 0,0 l/m 9,0 km/h (2 Bft) W-SW 239 5 min 0,000 mm 6,2 UV-I 1049 W/m 7,1 C 13,9 C 19,3 km/h (3 Bft)
05.06.2014 12:30 16,0 C 55 % 1013,4 hPa 0,0 l/m 9,9 km/h (2 Bft) S-SW 196 0 min 0,000 mm 2,5 UV-I 269 W/m 7,0 C 14,3 C 22,5 km/h (4 Bft)
05.06.2014 12:35 15,8 C 53 % 1013,5 hPa 0,0 l/m 10,1 km/h (2 Bft) SW 234 0 min 0,000 mm 1,9 UV-I 244 W/m 6,2 C 14,0 C 22,5 km/h (4 Bft)
05.06.2014 12:40 15,1 C 56 % 1013,5 hPa 0,0 l/m 12,8 km/h (3 Bft) SW 214 0 min 0,000 mm 4,2 UV-I 306 W/m 6,4 C 12,1 C 29,0 km/h (5 Bft)
05.06.2014 12:45 14,9 C 55 % 1013,6 hPa 0,0 l/m 12,7 km/h (3 Bft) S 177 0 min 0,000 mm 3,1 UV-I 329 W/m 5,9 C 11,9 C 20,9 km/h (4 Bft)
05.06.2014 12:50 14,9 C 56 % 1013,5 hPa 0,0 l/m 13,6 km/h (3 Bft) W 279 0 min 0,000 mm 2,7 UV-I 367 W/m 6,2 C 11,6 C 30,6 km/h (5 Bft)
05.06.2014 12:55 14,8 C 54 % 1013,5 hPa 0,0 l/m 14,6 km/h (3 Bft) W-SW 251 0 min 0,000 mm 2,5 UV-I 325 W/m 5,6 C 11,1 C 24,1 km/h (4 Bft)
05.06.2014 13:00 14,8 C 54 % 1013,6 hPa 0,0 l/m 12,9 km/h (3 Bft) W 259 0 min 0,000 mm 1,9 UV-I 236 W/m 5,6 C 11,7 C 24,1 km/h (4 Bft)
05.06.2014 13:05 14,8 C 56 % 1013,6 hPa 0,0 l/m 10,6 km/h (2 Bft) W 267 0 min 0,279 mm 2,4 UV-I 339 W/m 6,1 C 12,6 C 22,5 km/h (4 Bft)
05.06.2014 13:10 15,0 C 56 % 1013,6 hPa 0,0 l/m 8,4 km/h (2 Bft) S-SW 192 0 min 0,000 mm 2,8 UV-I 360 W/m 6,3 C 13,9 C 16,1 km/h (3 Bft)
05.06.2014 13:15 15,1 C 55 % 1013,7 hPa 0,0 l/m 10,2 km/h (2 Bft) W 261 0 min 0,000 mm 2,5 UV-I 325 W/m 6,1 C 13,1 C 20,9 km/h (4 Bft)
05.06.2014 13:20 15,2 C 54 % 1013,7 hPa 0,0 l/m 9,2 km/h (2 Bft) SW 215 0 min 0,000 mm 2,4 UV-I 318 W/m 6,0 C 13,7 C 20,9 km/h (4 Bft)
05.06.2014 13:25 15,2 C 56 % 1013,7 hPa 0,0 l/m 7,9 km/h (2 Bft) S-SW 196 0 min 0,000 mm 2,4 UV-I 306 W/m 6,5 C 14,4 C 14,5 km/h (3 Bft)
05.06.2014 13:30 15,2 C 51 % 1013,6 hPa 0,0 l/m 15,1 km/h (3 Bft) SW 224 0 min 0,000 mm 3,3 UV-I 374 W/m 5,1 C 11,4 C 25,7 km/h (4 Bft)
05.06.2014 13:35 15,2 C 52 % 1013,7 hPa 0,0 l/m 15,1 km/h (3 Bft) W-SW 254 0 min 0,000 mm 2,0 UV-I 248 W/m 5,4 C 11,4 C 27,4 km/h (4 Bft)
05.06.2014 13:40 15,2 C 51 % 1013,9 hPa 0,0 l/m 14,6 km/h (3 Bft) W-SW 257 0 min 0,000 mm 2,3 UV-I 301 W/m 5,1 C 11,6 C 32,2 km/h (5 Bft)
05.06.2014 13:45 15,3 C 53 % 1013,8 hPa 0,0 l/m 9,5 km/h (2 Bft) S-SW 207 0 min 0,000 mm 2,8 UV-I 346 W/m 5,8 C 13,7 C 19,3 km/h (3 Bft)
05.06.2014 13:50 16,0 C 51 % 1013,7 hPa 0,0 l/m 9,2 km/h (2 Bft) W-SW 250 0 min 0,000 mm 2,3 UV-I 258 W/m 5,9 C 14,6 C 22,5 km/h (4 Bft)
05.06.2014 13:55 15,6 C 51 % 1013,9 hPa 0,0 l/m 13,8 km/h (3 Bft) W-SW 240 0 min 0,000 mm 2,1 UV-I 264 W/m 5,5 C 12,3 C 25,7 km/h (4 Bft)
05.06.2014 14:00 15,3 C 50 % 1013,8 hPa 0,0 l/m 14,1 km/h (3 Bft) SW 230 0 min 0,000 mm 1,9 UV-I 244 W/m 4,9 C 11,9 C 22,5 km/h (4 Bft)
05.06.2014 14:05 15,4 C 53 % 1013,9 hPa 0,0 l/m 9,8 km/h (2 Bft) W-SW 240 0 min 0,254 mm 2,2 UV-I 281 W/m 5,9 C 13,6 C 22,5 km/h (4 Bft)
05.06.2014 14:10 15,6 C 52 % 1013,8 hPa 0,0 l/m 10,5 km/h (2 Bft) S-SW 199 0 min 0,000 mm 2,2 UV-I 267 W/m 5,8 C 13,6 C 20,9 km/h (4 Bft)
05.06.2014 14:15 15,6 C 51 % 1013,8 hPa 0,0 l/m 12,2 km/h (2 Bft) S-SW 202 0 min 0,000 mm 1,7 UV-I 227 W/m 5,5 C 12,9 C 24,1 km/h (4 Bft)
05.06.2014 14:20 15,6 C 52 % 1013,8 hPa 0,0 l/m 13,5 km/h (3 Bft) S 191 0 min 0,000 mm 2,3 UV-I 308 W/m 5,8 C 12,4 C 27,4 km/h (4 Bft)
05.06.2014 14:25 15,8 C 53 % 1013,8 hPa 0,0 l/m 9,3 km/h (2 Bft) W 261 0 min 0,000 mm 2,5 UV-I 315 W/m 6,2 C 14,3 C 19,3 km/h (3 Bft)
05.06.2014 14:30 15,8 C 51 % 1013,9 hPa 0,0 l/m 13,6 km/h (3 Bft) S 178 0 min 0,000 mm 2,5 UV-I 360 W/m 5,7 C 12,6 C 29,0 km/h (5 Bft)
05.06.2014 14:35 15,9 C 50 % 1014,0 hPa 0,0 l/m 9,1 km/h (2 Bft) W 263 0 min 0,000 mm 3,4 UV-I 323 W/m 5,5 C 14,5 C 20,9 km/h (4 Bft)
05.06.2014 14:40 15,8 C 51 % 1013,9 hPa 0,0 l/m 12,0 km/h (2 Bft) S-SW 209 0 min 0,000 mm 2,7 UV-I 348 W/m 5,7 C 13,2 C 24,1 km/h (4 Bft)
05.06.2014 14:45 15,9 C 52 % 1013,9 hPa 0,0 l/m 12,0 km/h (2 Bft) W 259 0 min 0,000 mm 3,3 UV-I 411 W/m 6,1 C 13,3 C 22,5 km/h (4 Bft)
05.06.2014 14:50 16,1 C 51 % 1013,9 hPa 0,0 l/m 11,4 km/h (2 Bft) W 259 0 min 0,000 mm 3,0 UV-I 373 W/m 6,0 C 13,8 C 25,7 km/h (4 Bft)
05.06.2014 14:55 16,1 C 50 % 1013,9 hPa 0,0 l/m 15,2 km/h (3 Bft) W-NW 302 0 min 0,000 mm 3,7 UV-I 424 W/m 5,7 C 12,5 C 27,4 km/h (4 Bft)
05.06.2014 15:00 16,2 C 51 % 1013,9 hPa 0,0 l/m 12,6 km/h (3 Bft) SW 222 0 min 0,000 mm 2,1 UV-I 264 W/m 6,1 C 13,4 C 24,1 km/h (4 Bft)
05.06.2014 15:05 16,1 C 50 % 1014,1 hPa 0,0 l/m 12,4 km/h (3 Bft) SW 235 0 min 0,254 mm 2,9 UV-I 279 W/m 5,7 C 13,4 C 25,7 km/h (4 Bft)
05.06.2014 15:10 16,2 C 52 % 1014,0 hPa 0,0 l/m 9,2 km/h (2 Bft) W 270 0 min 0,000 mm 2,4 UV-I 308 W/m 6,3 C 14,8 C 19,3 km/h (3 Bft)
05.06.2014 15:15 16,2 C 52 % 1014,0 hPa 0,0 l/m 11,0 km/h (2 Bft) W-SW 253 0 min 0,000 mm 2,9 UV-I 392 W/m 6,3 C 14,0 C 20,9 km/h (4 Bft)
05.06.2014 15:20 16,1 C 49 % 1014,2 hPa 0,0 l/m 15,7 km/h (3 Bft) W 265 0 min 0,000 mm 2,9 UV-I 436 W/m 5,4 C 12,3 C 29,0 km/h (5 Bft)
05.06.2014 15:25 16,3 C 49 % 1014,1 hPa 0,0 l/m 14,8 km/h (3 Bft) W 273 0 min 0,000 mm 2,7 UV-I 325 W/m 5,6 C 12,8 C 24,1 km/h (4 Bft)
05.06.2014 15:30 16,3 C 49 % 1014,1 hPa 0,0 l/m 11,6 km/h (2 Bft) W-SW 243 0 min 0,000 mm 2,8 UV-I 404 W/m 5,6 C 13,9 C 19,3 km/h (3 Bft)
05.06.2014 15:35 16,6 C 51 % 1014,1 hPa 0,0 l/m 10,0 km/h (2 Bft) SW 234 5 min 0,000 mm 3,6 UV-I 438 W/m 6,4 C 14,9 C 20,9 km/h (4 Bft)
05.06.2014 15:40 16,9 C 48 % 1014,1 hPa 0,0 l/m 10,5 km/h (2 Bft) W-SW 254 5 min 0,000 mm 4,7 UV-I 724 W/m 5,8 C 15,0 C 19,3 km/h (3 Bft)
05.06.2014 15:45 17,1 C 48 % 1014,1 hPa 0,0 l/m 11,1 km/h (2 Bft) W-SW 248 0 min 0,000 mm 4,6 UV-I 406 W/m 6,0 C 15,0 C 25,7 km/h (4 Bft)
05.06.2014 15:50 17,2 C 48 % 1014,0 hPa 0,0 l/m 11,1 km/h (2 Bft) W-SW 253 0 min 0,000 mm 2,8 UV-I 376 W/m 6,1 C 15,1 C 24,1 km/h (4 Bft)
05.06.2014 15:55 17,1 C 48 % 1014,1 hPa 0,0 l/m 12,9 km/h (3 Bft) W 261 0 min 0,000 mm 2,5 UV-I 388 W/m 6,0 C 14,4 C 27,4 km/h (4 Bft)
05.06.2014 16:00 16,9 C 48 % 1014,1 hPa 0,0 l/m 10,7 km/h (2 Bft) W-SW 252 0 min 0,000 mm 2,4 UV-I 332 W/m 5,8 C 14,9 C 24,1 km/h (4 Bft)
05.06.2014 16:05 17,1 C 48 % 1014,1 hPa 0,0 l/m 8,7 km/h (2 Bft) W 264 0 min 0,305 mm 2,3 UV-I 348 W/m 6,0 C 16,0 C 17,7 km/h (3 Bft)
05.06.2014 16:10 17,1 C 49 % 1014,1 hPa 0,0 l/m 9,3 km/h (2 Bft) W 265 5 min 0,000 mm 3,8 UV-I 1000 W/m 6,3 C 15,7 C 24,1 km/h (4 Bft)
05.06.2014 16:15 17,2 C 46 % 1014,2 hPa 0,0 l/m 11,6 km/h (2 Bft) SW 222 5 min 0,000 mm 3,0 UV-I 413 W/m 5,5 C 14,9 C 22,5 km/h (4 Bft)
05.06.2014 16:20 17,2 C 47 % 1014,1 hPa 0,0 l/m 11,5 km/h (2 Bft) SW 219 0 min 0,000 mm 3,3 UV-I 311 W/m 5,8 C 15,0 C 29,0 km/h (5 Bft)
05.06.2014 16:25 17,1 C 48 % 1014,2 hPa 0,0 l/m 12,2 km/h (2 Bft) W-SW 240 0 min 0,000 mm 2,0 UV-I 336 W/m 6,0 C 14,6 C 24,1 km/h (4 Bft)
05.06.2014 16:30 17,0 C 46 % 1014,1 hPa 0,0 l/m 10,1 km/h (2 Bft) W-SW 251 0 min 0,000 mm 1,7 UV-I 285 W/m 5,3 C 15,3 C 24,1 km/h (4 Bft)
05.06.2014 16:35 17,1 C 47 % 1014,1 hPa 0,0 l/m 8,5 km/h (2 Bft) W-SW 249 0 min 0,000 mm 1,7 UV-I 292 W/m 5,7 C 16,1 C 19,3 km/h (3 Bft)
05.06.2014 16:40 17,1 C 47 % 1014,1 hPa 0,0 l/m 11,5 km/h (2 Bft) O-SO 117 0 min 0,000 mm 1,9 UV-I 355 W/m 5,7 C 14,9 C 27,4 km/h (4 Bft)
05.06.2014 16:45 17,1 C 46 % 1014,2 hPa 0,0 l/m 11,1 km/h (2 Bft) W 262 5 min 0,000 mm 1,9 UV-I 366 W/m 5,4 C 15,0 C 22,5 km/h (4 Bft)
05.06.2014 16:50 17,1 C 47 % 1014,1 hPa 0,0 l/m 10,3 km/h (2 Bft) W-SW 240 0 min 0,000 mm 1,8 UV-I 329 W/m 5,7 C 15,3 C 20,9 km/h (4 Bft)
05.06.2014 16:55 16,8 C 46 % 1014,1 hPa 0,0 l/m 14,3 km/h (3 Bft) W-NW 289 0 min 0,000 mm 1,8 UV-I 316 W/m 5,1 C 13,6 C 25,7 km/h (4 Bft)
05.06.2014 17:00 16,8 C 46 % 1014,1 hPa 0,0 l/m 12,8 km/h (3 Bft) SW 234 0 min 0,000 mm 1,8 UV-I 339 W/m 5,1 C 14,1 C 27,4 km/h (4 Bft)
05.06.2014 17:05 17,0 C 46 % 1014,1 hPa 0,0 l/m 12,5 km/h (3 Bft) W 268 5 min 0,280 mm 1,7 UV-I 383 W/m 5,3 C 14,4 C 27,4 km/h (4 Bft)
05.06.2014 17:10 17,0 C 46 % 1014,1 hPa 0,0 l/m 12,3 km/h (3 Bft) W-NW 291 5 min 0,000 mm 1,9 UV-I 350 W/m 5,3 C 14,5 C 20,9 km/h (4 Bft)
05.06.2014 17:15 17,2 C 47 % 1014,2 hPa 0,0 l/m 10,6 km/h (2 Bft) S-SW 198 5 min 0,000 mm 1,9 UV-I 805 W/m 5,8 C 15,3 C 19,3 km/h (3 Bft)
05.06.2014 17:20 17,4 C 46 % 1014,2 hPa 0,0 l/m 8,5 km/h (2 Bft) W-SW 257 5 min 0,000 mm 1,6 UV-I 387 W/m 5,7 C 16,4 C 14,5 km/h (3 Bft)
05.06.2014 17:25 17,7 C 45 % 1014,1 hPa 0,0 l/m 11,1 km/h (2 Bft) W 262 5 min 0,000 mm 2,0 UV-I 666 W/m 5,6 C 15,7 C 20,9 km/h (4 Bft)
05.06.2014 17:30 18,1 C 45 % 1014,2 hPa 0,0 l/m 11,0 km/h (2 Bft) W 259 5 min 0,000 mm 2,2 UV-I 773 W/m 6,0 C 16,2 C 22,5 km/h (4 Bft)
05.06.2014 17:35 18,0 C 45 % 1014,1 hPa 0,0 l/m 10,8 km/h (2 Bft) W-SW 239 5 min 0,000 mm 1,7 UV-I 744 W/m 5,9 C 16,1 C 20,9 km/h (4 Bft)
05.06.2014 17:40 17,5 C 46 % 1014,1 hPa 0,0 l/m 13,3 km/h (3 Bft) W-NW 294 5 min 0,000 mm 1,6 UV-I 336 W/m 5,8 C 14,7 C 25,7 km/h (4 Bft)
05.06.2014 17:45 17,6 C 46 % 1014,1 hPa 0,0 l/m 10,7 km/h (2 Bft) NW 315 0 min 0,000 mm 1,3 UV-I 230 W/m 5,8 C 15,7 C 17,7 km/h (3 Bft)
05.06.2014 17:50 17,6 C 47 % 1014,1 hPa 0,0 l/m 9,8 km/h (2 Bft) SW 225 0 min 0,000 mm 1,7 UV-I 264 W/m 6,2 C 16,1 C 19,3 km/h (3 Bft)
05.06.2014 17:55 17,9 C 45 % 1014,1 hPa 0,0 l/m 13,9 km/h (3 Bft) W-NW 284 5 min 0,000 mm 1,5 UV-I 582 W/m 5,8 C 15,0 C 25,7 km/h (4 Bft)
05.06.2014 18:00 17,9 C 45 % 1014,0 hPa 0,0 l/m 13,0 km/h (3 Bft) W 275 5 min 0,000 mm 1,6 UV-I 587 W/m 5,8 C 15,3 C 22,5 km/h (4 Bft)
05.06.2014 18:05 18,2 C 44 % 1014,1 hPa 0,0 l/m 10,9 km/h (2 Bft) SW 231 0 min 0,355 mm 1,1 UV-I 172 W/m 5,7 C 16,3 C 19,3 km/h (3 Bft)
05.06.2014 18:10 18,1 C 45 % 1014,1 hPa 0,0 l/m 10,2 km/h (2 Bft) W 261 5 min 0,000 mm 1,4 UV-I 471 W/m 6,0 C 16,5 C 19,3 km/h (3 Bft)
05.06.2014 18:15 18,1 C 44 % 1014,1 hPa 0,0 l/m 12,1 km/h (2 Bft) SW 222 5 min 0,000 mm 1,3 UV-I 452 W/m 5,7 C 15,8 C 27,4 km/h (4 Bft)
05.06.2014 18:20 18,0 C 44 % 1014,0 hPa 0,0 l/m 10,8 km/h (2 Bft) SW 234 5 min 0,000 mm 1,2 UV-I 443 W/m 5,6 C 16,1 C 17,7 km/h (3 Bft)
05.06.2014 18:25 18,2 C 45 % 1014,0 hPa 0,0 l/m 8,8 km/h (2 Bft) W-NW 290 5 min 0,000 mm 1,2 UV-I 436 W/m 6,1 C 17,1 C 16,1 km/h (3 Bft)
05.06.2014 18:30 18,3 C 44 % 1014,1 hPa 0,0 l/m 9,3 km/h (2 Bft) S-SW 211 5 min 0,000 mm 1,1 UV-I 434 W/m 5,8 C 17,0 C 22,5 km/h (4 Bft)
05.06.2014 18:35 18,4 C 44 % 1014,1 hPa 0,0 l/m 9,8 km/h (2 Bft) SW 215 5 min 0,000 mm 0,9 UV-I 441 W/m 5,9 C 16,9 C 17,7 km/h (3 Bft)
05.06.2014 18:40 18,3 C 45 % 1014,2 hPa 0,0 l/m 7,3 km/h (2 Bft) SW 219 5 min 0,000 mm 0,8 UV-I 422 W/m 6,2 C 17,9 C 19,3 km/h (3 Bft)
05.06.2014 18:45 18,5 C 45 % 1014,1 hPa 0,0 l/m 6,2 km/h (2 Bft) SW 220 5 min 0,000 mm 0,9 UV-I 311 W/m 6,3 C 18,5 C 14,5 km/h (3 Bft)
05.06.2014 18:50 18,8 C 44 % 1014,2 hPa 0,0 l/m 5,3 km/h (1 Bft) W-SW 241 5 min 0,000 mm 0,9 UV-I 390 W/m 6,3 C 18,8 C 19,3 km/h (3 Bft)
05.06.2014 18:55 18,7 C 45 % 1014,1 hPa 0,0 l/m 6,6 km/h (2 Bft) W 271 5 min 0,000 mm 0,8 UV-I 380 W/m 6,5 C 18,6 C 16,1 km/h (3 Bft)
05.06.2014 19:00 18,8 C 44 % 1014,2 hPa 0,0 l/m 5,7 km/h (1 Bft) S 181 5 min 0,000 mm 0,7 UV-I 396 W/m 6,3 C 18,8 C 12,9 km/h (3 Bft)
05.06.2014 19:05 18,9 C 44 % 1014,2 hPa 0,0 l/m 5,8 km/h (2 Bft) S-SO 154 5 min 0,280 mm 0,7 UV-I 383 W/m 6,4 C 18,9 C 11,3 km/h (2 Bft)
05.06.2014 19:10 19,1 C 44 % 1014,2 hPa 0,0 l/m 6,8 km/h (2 Bft) NW 317 5 min 0,000 mm 0,6 UV-I 341 W/m 6,6 C 18,9 C 14,5 km/h (3 Bft)
05.06.2014 19:15 18,8 C 43 % 1014,3 hPa 0,0 l/m 9,2 km/h (2 Bft) W 274 5 min 0,000 mm 0,6 UV-I 327 W/m 6,0 C 17,6 C 19,3 km/h (3 Bft)
05.06.2014 19:20 18,4 C 43 % 1014,3 hPa 0,0 l/m 9,1 km/h (2 Bft) W-SW 251 5 min 0,000 mm 0,6 UV-I 339 W/m 5,6 C 17,2 C 16,1 km/h (3 Bft)
05.06.2014 19:25 18,3 C 44 % 1014,3 hPa 0,0 l/m 10,9 km/h (2 Bft) SW 223 5 min 0,000 mm 0,5 UV-I 294 W/m 5,8 C 16,4 C 19,3 km/h (3 Bft)
05.06.2014 19:30 18,2 C 44 % 1014,4 hPa 0,0 l/m 10,2 km/h (2 Bft) W-SW 250 5 min 0,000 mm 0,5 UV-I 255 W/m 5,7 C 16,6 C 17,7 km/h (3 Bft)
05.06.2014 19:35 17,9 C 44 % 1014,5 hPa 0,0 l/m 9,4 km/h (2 Bft) SW 229 0 min 0,000 mm 0,0 UV-I 91 W/m 5,5 C 16,6 C 17,7 km/h (3 Bft)
05.06.2014 19:40 17,5 C 45 % 1014,5 hPa 0,0 l/m 8,0 km/h (2 Bft) W-SW 253 0 min 0,000 mm 0,0 UV-I 98 W/m 5,4 C 16,7 C 16,1 km/h (3 Bft)
05.06.2014 19:45 17,4 C 45 % 1014,6 hPa 0,0 l/m 6,3 km/h (2 Bft) W-SW 248 5 min 0,000 mm 0,0 UV-I 221 W/m 5,3 C 17,4 C 12,9 km/h (3 Bft)
05.06.2014 19:50 17,6 C 45 % 1014,5 hPa 0,0 l/m 8,9 km/h (2 Bft) W-NW 294 0 min 0,000 mm 0,0 UV-I 120 W/m 5,5 C 16,4 C 20,9 km/h (4 Bft)
05.06.2014 19:55 17,4 C 44 % 1014,6 hPa 0,0 l/m 8,7 km/h (2 Bft) W 267 5 min 0,000 mm 0,0 UV-I 190 W/m 5,0 C 16,3 C 19,3 km/h (3 Bft)
05.06.2014 20:00 17,4 C 45 % 1014,6 hPa 0,0 l/m 8,6 km/h (2 Bft) S-SW 198 5 min 0,000 mm 0,0 UV-I 174 W/m 5,3 C 16,4 C 16,1 km/h (3 Bft)
05.06.2014 20:05 17,4 C 45 % 1014,6 hPa 0,0 l/m 5,0 km/h (1 Bft) W-SW 253 5 min 0,203 mm 0,0 UV-I 165 W/m 5,3 C 17,4 C 9,7 km/h (2 Bft)
05.06.2014 20:10 17,6 C 45 % 1014,6 hPa 0,0 l/m 5,0 km/h (1 Bft) S 185 5 min 0,000 mm 0,0 UV-I 158 W/m 5,5 C 17,6 C 9,7 km/h (2 Bft)
05.06.2014 20:15 17,6 C 45 % 1014,6 hPa 0,0 l/m 6,7 km/h (2 Bft) W-SW 246 0 min 0,000 mm 0,0 UV-I 62 W/m 5,5 C 17,5 C 11,3 km/h (2 Bft)
05.06.2014 20:20 17,3 C 46 % 1014,7 hPa 0,0 l/m 3,7 km/h (1 Bft) W-SW 240 0 min 0,000 mm 0,0 UV-I 49 W/m 5,6 C 17,3 C 12,9 km/h (3 Bft)
05.06.2014 20:25 17,0 C 47 % 1014,7 hPa 0,0 l/m 4,9 km/h (1 Bft) SW 228 0 min 0,000 mm 0,0 UV-I 39 W/m 5,6 C 17,0 C 11,3 km/h (2 Bft)
05.06.2014 20:30 16,7 C 48 % 1014,7 hPa 0,0 l/m 3,2 km/h (1 Bft) W-SW 244 0 min 0,000 mm 0,0 UV-I 37 W/m 5,6 C 16,7 C 11,3 km/h (2 Bft)
05.06.2014 20:35 16,5 C 49 % 1014,8 hPa 0,0 l/m 1,1 km/h (1 Bft) W-SW 257 0 min 0,000 mm 0,0 UV-I 26 W/m 5,8 C 16,5 C 4,8 km/h (1 Bft)
05.06.2014 20:40 16,3 C 51 % 1014,9 hPa 0,0 l/m 0,1 km/h (0 Bft) W-SW 257 0 min 0,000 mm 0,0 UV-I 25 W/m 6,1 C 16,3 C 1,6 km/h (1 Bft)
05.06.2014 20:45 16,2 C 51 % 1014,9 hPa 0,0 l/m 0,1 km/h (0 Bft) W-SW 257 0 min 0,000 mm 0,0 UV-I 23 W/m 6,1 C 16,2 C 1,6 km/h (1 Bft)
05.06.2014 20:50 16,1 C 51 % 1015,0 hPa 0,0 l/m 0,3 km/h (0 Bft) W-SW 258 0 min 0,000 mm 0,0 UV-I 19 W/m 6,0 C 16,1 C 3,2 km/h (1 Bft)
05.06.2014 20:55 15,9 C 54 % 1015,0 hPa 0,0 l/m 0,0 km/h (0 Bft) W-SW 258 0 min 0,000 mm 0,0 UV-I 16 W/m 6,6 C 15,9 C 1,6 km/h (1 Bft)
05.06.2014 21:00 15,8 C 54 % 1015,1 hPa 0,0 l/m 0,0 km/h (0 Bft) W-SW 258 0 min 0,000 mm 0,0 UV-I 14 W/m 6,5 C 15,8 C 0,0 km/h (0 Bft)
05.06.2014 21:05 15,7 C 54 % 1015,1 hPa 0,0 l/m 0,0 km/h (0 Bft) W-SW 258 0 min 0,051 mm 0,0 UV-I 12 W/m 6,4 C 15,7 C 0,0 km/h (0 Bft)
05.06.2014 21:10 15,4 C 55 % 1015,2 hPa 0,0 l/m 0,0 km/h (0 Bft) W-SW 258 0 min 0,000 mm 0,0 UV-I 11 W/m 6,4 C 15,4 C 1,6 km/h (1 Bft)
05.06.2014 21:15 15,1 C 56 % 1015,2 hPa 0,0 l/m 0,1 km/h (0 Bft) W-SW 258 0 min 0,000 mm 0,0 UV-I 9 W/m 6,4 C 15,1 C 1,6 km/h (1 Bft)
05.06.2014 21:20 14,7 C 57 % 1015,3 hPa 0,0 l/m 0,0 km/h (0 Bft) W-SW 258 0 min 0,000 mm 0,0 UV-I 7 W/m 6,3 C 14,7 C 1,6 km/h (1 Bft)
05.06.2014 21:25 14,4 C 58 % 1015,3 hPa 0,0 l/m 0,0 km/h (0 Bft) W-SW 258 0 min 0,000 mm 0,0 UV-I 5 W/m 6,2 C 14,4 C 0,0 km/h (0 Bft)
05.06.2014 21:30 14,2 C 59 % 1015,4 hPa 0,0 l/m 0,0 km/h (0 Bft) W-SW 258 0 min 0,000 mm 0,0 UV-I 5 W/m 6,3 C 14,2 C 0,0 km/h (0 Bft)
05.06.2014 21:35 13,8 C 62 % 1015,4 hPa 0,0 l/m 0,0 km/h (0 Bft) W-SW 258 0 min 0,000 mm 0,0 UV-I 0 W/m 6,6 C 13,8 C 1,6 km/h (1 Bft)
05.06.2014 21:40 13,2 C 63 % 1015,5 hPa 0,0 l/m 0,1 km/h (0 Bft) W-SW 258 0 min 0,000 mm 0,0 UV-I 0 W/m 6,3 C 13,2 C 1,6 km/h (1 Bft)
05.06.2014 21:45 12,8 C 65 % 1015,5 hPa 0,0 l/m 0,0 km/h (0 Bft) W-SW 258 0 min 0,000 mm 0,0 UV-I 0 W/m 6,4 C 12,8 C 1,6 km/h (1 Bft)
05.06.2014 21:50 12,7 C 65 % 1015,5 hPa 0,0 l/m 0,0 km/h (0 Bft) W-SW 258 0 min 0,000 mm 0,0 UV-I 0 W/m 6,3 C 12,7 C 0,0 km/h (0 Bft)
05.06.2014 21:55 12,5 C 67 % 1015,6 hPa 0,0 l/m 0,0 km/h (0 Bft) W-SW 258 0 min 0,000 mm 0,0 UV-I 0 W/m 6,5 C 12,5 C 0,0 km/h (0 Bft)
05.06.2014 22:00 12,3 C 67 % 1015,7 hPa 0,0 l/m 0,0 km/h (0 Bft) W-SW 258 0 min 0,000 mm 0,0 UV-I 0 W/m 6,4 C 12,3 C 0,0 km/h (0 Bft)
05.06.2014 22:05 12,2 C 68 % 1015,8 hPa 0,0 l/m 0,0 km/h (0 Bft) W-SW 258 0 min 0,000 mm 0,0 UV-I 0 W/m 6,5 C 12,2 C 0,0 km/h (0 Bft)
05.06.2014 22:10 12,1 C 68 % 1015,9 hPa 0,0 l/m 0,0 km/h (0 Bft) W-SW 258 0 min 0,000 mm 0,0 UV-I 0 W/m 6,4 C 12,1 C 0,0 km/h (0 Bft)
05.06.2014 22:15 11,9 C 68 % 1016,0 hPa 0,0 l/m 0,0 km/h (0 Bft) W-SW 258 0 min 0,000 mm 0,0 UV-I 0 W/m 6,2 C 11,9 C 0,0 km/h (0 Bft)
05.06.2014 22:20 11,7 C 68 % 1016,0 hPa 0,0 l/m 0,0 km/h (0 Bft) W-SW 258 0 min 0,000 mm 0,0 UV-I 0 W/m 6,0 C 11,7 C 0,0 km/h (0 Bft)
05.06.2014 22:25 11,4 C 69 % 1016,0 hPa 0,0 l/m 0,0 km/h (0 Bft) W-SW 258 0 min 0,000 mm 0,0 UV-I 0 W/m 5,9 C 11,4 C 0,0 km/h (0 Bft)
05.06.2014 22:30 11,3 C 71 % 1016,1 hPa 0,0 l/m 0,0 km/h (0 Bft) W-SW 258 0 min 0,000 mm 0,0 UV-I 0 W/m 6,2 C 11,3 C 0,0 km/h (0 Bft)
05.06.2014 22:35 11,2 C 72 % 1016,2 hPa 0,0 l/m 0,0 km/h (0 Bft) W-SW 258 0 min 0,000 mm 0,0 UV-I 0 W/m 6,3 C 11,2 C 0,0 km/h (0 Bft)
05.06.2014 22:40 11,0 C 72 % 1016,3 hPa 0,0 l/m 0,0 km/h (0 Bft) W-SW 258 0 min 0,000 mm 0,0 UV-I 0 W/m 6,2 C 11,0 C 0,0 km/h (0 Bft)
05.06.2014 22:45 10,8 C 73 % 1016,3 hPa 0,0 l/m 0,0 km/h (0 Bft) W-SW 258 0 min 0,000 mm 0,0 UV-I 0 W/m 6,2 C 10,8 C 0,0 km/h (0 Bft)
05.06.2014 22:50 10,6 C 74 % 1016,4 hPa 0,0 l/m 0,0 km/h (0 Bft) W-SW 258 0 min 0,000 mm 0,0 UV-I 0 W/m 6,2 C 10,6 C 0,0 km/h (0 Bft)
05.06.2014 22:55 10,4 C 75 % 1016,4 hPa 0,0 l/m 0,0 km/h (0 Bft) W-SW 258 0 min 0,000 mm 0,0 UV-I 0 W/m 6,2 C 10,4 C 0,0 km/h (0 Bft)
05.06.2014 23:00 10,2 C 77 % 1016,5 hPa 0,0 l/m 0,0 km/h (0 Bft) W-SW 258 0 min 0,000 mm 0,0 UV-I 0 W/m 6,4 C 10,2 C 1,6 km/h (1 Bft)
05.06.2014 23:05 10,0 C 78 % 1016,5 hPa 0,0 l/m 0,0 km/h (0 Bft) W-SW 258 0 min 0,025 mm 0,0 UV-I 0 W/m 6,3 C 10,0 C 0,0 km/h (0 Bft)
05.06.2014 23:10 9,8 C 78 % 1016,5 hPa 0,0 l/m 0,0 km/h (0 Bft) W-SW 258 0 min 0,000 mm 0,0 UV-I 0 W/m 6,1 C 9,8 C 0,0 km/h (0 Bft)
05.06.2014 23:15 9,7 C 78 % 1016,5 hPa 0,0 l/m 0,0 km/h (0 Bft) W-SW 258 0 min 0,000 mm 0,0 UV-I 0 W/m 6,1 C 9,7 C 0,0 km/h (0 Bft)
05.06.2014 23:20 9,6 C 78 % 1016,5 hPa 0,0 l/m 0,0 km/h (0 Bft) W-SW 258 0 min 0,000 mm 0,0 UV-I 0 W/m 6,0 C 9,6 C 0,0 km/h (0 Bft)
05.06.2014 23:25 9,5 C 79 % 1016,6 hPa 0,0 l/m 0,0 km/h (0 Bft) W-SW 258 0 min 0,000 mm 0,0 UV-I 0 W/m 6,0 C 9,5 C 0,0 km/h (0 Bft)
05.06.2014 23:30 9,4 C 79 % 1016,6 hPa 0,0 l/m 0,0 km/h (0 Bft) W-SW 258 0 min 0,000 mm 0,0 UV-I 0 W/m 5,9 C 9,4 C 0,0 km/h (0 Bft)
05.06.2014 23:35 9,3 C 80 % 1016,7 hPa 0,0 l/m 0,0 km/h (0 Bft) W-SW 258 0 min 0,000 mm 0,0 UV-I 0 W/m 6,0 C 9,3 C 0,0 km/h (0 Bft)
05.06.2014 23:40 9,1 C 80 % 1016,7 hPa 0,0 l/m 0,0 km/h (0 Bft) W-SW 258 0 min 0,000 mm 0,0 UV-I 0 W/m 5,8 C 9,1 C 0,0 km/h (0 Bft)
05.06.2014 23:45 9,0 C 80 % 1016,8 hPa 0,0 l/m 0,0 km/h (0 Bft) W-SW 258 0 min 0,000 mm 0,0 UV-I 0 W/m 5,7 C 9,0 C 0,0 km/h (0 Bft)
05.06.2014 23:50 8,8 C 80 % 1016,9 hPa 0,0 l/m 0,0 km/h (0 Bft) W-SW 258 0 min 0,000 mm 0,0 UV-I 0 W/m 5,5 C 8,8 C 0,0 km/h (0 Bft)
05.06.2014 23:55 8,7 C 81 % 1016,9 hPa 0,0 l/m 0,0 km/h (0 Bft) W-SW 258 0 min 0,000 mm 0,0 UV-I 0 W/m 5,6 C 8,7 C 0,0 km/h (0 Bft)
_ Min-Zeit 06:20 19:15 00:00 - 06:25 - - - - - - 14:00 02:45 06:30
Minimum _ 7,7 C 43 % 1006,4 hPa - 0,0 km/h (0 Bft) - - - - - - 4,9 C 6,5 C 0,0 km/h (0 Bft)
_ Max-Zeit 19:10 00:00 23:50 02:05 10:45 - - 06:35 18:05 12:25 12:25 00:30 19:10 10:45
Maximum _ 19,1 C 93 % 1016,9 hPa 0,2 l/m 17,0 km/h
W-NW (3 Bft)
- - 5 min 0,355 mm 6,2 UV-I 1049 W/m 12,5 C 18,9 C 33,8 km/h
S-SW (5 Bft)
Durchschnitt _ 13,4 C 68 % 1012,6 hPa #0,4 l/m 7,4 km/h (2 Bft) W-SW - #7:25 h #3,556 mm 2,2 UV-I 319 W/m 7,0 C 12,0 C 15,5 km/h (3 Bft)